#datetime,building,power
2023-06-04T00:00:00,atd,20.16
2023-06-04T00:01:00,atd,19.51
2023-06-04T00:02:00,atd,18.86
2023-06-04T00:03:00,atd,20.61
2023-06-04T00:04:00,atd,21.65
2023-06-04T00:05:00,atd,18.91
2023-06-04T00:06:00,atd,20.51
2023-06-04T00:07:00,atd,22.86
2023-06-04T00:08:00,atd,19.77
2023-06-04T00:09:00,atd,30.46
2023-06-04T00:10:00,atd,19.58
2023-06-04T00:11:00,atd,19.66
2023-06-04T00:12:00,atd,20.16
2023-06-04T00:13:00,atd,23.73
2023-06-04T00:14:00,atd,21.80
2023-06-04T00:15:00,atd,19.39
2023-06-04T00:16:00,atd,19.41
2023-06-04T00:17:00,atd,19.64
2023-06-04T00:18:00,atd,17.18
2023-06-04T00:19:00,atd,17.21
2023-06-04T00:20:00,atd,18.85
2023-06-04T00:21:00,atd,21.20
2023-06-04T00:22:00,atd,21.63
2023-06-04T00:23:00,atd,20.13
2023-06-04T00:24:00,atd,21.43
2023-06-04T00:25:00,atd,21.32
2023-06-04T00:26:00,atd,16.46
2023-06-04T00:27:00,atd,17.82
2023-06-04T00:28:00,atd,32.21
2023-06-04T00:29:00,atd,20.65
2023-06-04T00:30:00,atd,21.22
2023-06-04T00:31:00,atd,26.15
2023-06-04T00:32:00,atd,23.86
2023-06-04T00:33:00,atd,20.48
2023-06-04T00:34:00,atd,21.32
2023-06-04T00:35:00,atd,20.78
2023-06-04T00:36:00,atd,21.51
2023-06-04T00:37:00,atd,17.01
2023-06-04T00:38:00,atd,18.19
2023-06-04T00:39:00,atd,20.28
2023-06-04T00:40:00,atd,22.04
2023-06-04T00:41:00,atd,26.02
2023-06-04T00:42:00,atd,26.66
2023-06-04T00:43:00,atd,35.79
2023-06-04T00:44:00,atd,34.88
2023-06-04T00:45:00,atd,32.78
2023-06-04T00:46:00,atd,31.37
2023-06-04T00:47:00,atd,21.89
2023-06-04T00:48:00,atd,21.63
2023-06-04T00:49:00,atd,25.91
2023-06-04T00:50:00,atd,19.17
2023-06-04T00:51:00,atd,20.26
2023-06-04T00:52:00,atd,21.11
2023-06-04T00:53:00,atd,23.70
2023-06-04T00:54:00,atd,17.98
2023-06-04T00:55:00,atd,20.35
2023-06-04T00:56:00,atd,24.10
2023-06-04T00:57:00,atd,23.66
2023-06-04T00:58:00,atd,24.01
2023-06-04T00:59:00,atd,22.01
2023-06-04T01:00:00,atd,25.27
2023-06-04T01:01:00,atd,23.83
2023-06-04T01:02:00,atd,23.10
2023-06-04T01:03:00,atd,17.86
2023-06-04T01:04:00,atd,18.45
2023-06-04T01:05:00,atd,20.11
2023-06-04T01:06:00,atd,30.60
2023-06-04T01:07:00,atd,19.09
2023-06-04T01:08:00,atd,18.32
2023-06-04T01:09:00,atd,18.61
2023-06-04T01:10:00,atd,18.88
2023-06-04T01:11:00,atd,18.66
2023-06-04T01:12:00,atd,18.64
2023-06-04T01:13:00,atd,19.27
2023-06-04T01:14:00,atd,17.53
2023-06-04T01:15:00,atd,20.61
2023-06-04T01:16:00,atd,18.18
2023-06-04T01:17:00,atd,20.85
2023-06-04T01:18:00,atd,18.82
2023-06-04T01:19:00,atd,20.70
2023-06-04T01:20:00,atd,19.07
2023-06-04T01:21:00,atd,18.58
2023-06-04T01:22:00,atd,18.96
2023-06-04T01:23:00,atd,17.49
2023-06-04T01:24:00,atd,17.78
2023-06-04T01:25:00,atd,20.81
2023-06-04T01:26:00,atd,21.61
2023-06-04T01:27:00,atd,17.87
2023-06-04T01:28:00,atd,17.96
2023-06-04T01:29:00,atd,16.60
2023-06-04T01:30:00,atd,26.11
2023-06-04T01:31:00,atd,28.60
2023-06-04T01:32:00,atd,25.18
2023-06-04T01:33:00,atd,30.71
2023-06-04T01:34:00,atd,20.86
2023-06-04T01:35:00,atd,21.32
2023-06-04T01:36:00,atd,21.56
2023-06-04T01:37:00,atd,23.29
2023-06-04T01:38:00,atd,20.95
2023-06-04T01:39:00,atd,16.71
2023-06-04T01:40:00,atd,19.39
2023-06-04T01:41:00,atd,17.18
2023-06-04T01:42:00,atd,21.34
2023-06-04T01:43:00,atd,17.85
2023-06-04T01:44:00,atd,19.74
2023-06-04T01:45:00,atd,30.76
2023-06-04T01:46:00,atd,17.69
2023-06-04T01:47:00,atd,16.78
2023-06-04T01:48:00,atd,17.35
2023-06-04T01:49:00,atd,21.28
2023-06-04T01:50:00,atd,21.56
2023-06-04T01:51:00,atd,21.35
2023-06-04T01:52:00,atd,23.51
2023-06-04T01:53:00,atd,20.47
2023-06-04T01:54:00,atd,19.56
2023-06-04T01:55:00,atd,19.66
2023-06-04T01:56:00,atd,19.37
2023-06-04T01:57:00,atd,21.72
2023-06-04T01:58:00,atd,23.56
2023-06-04T01:59:00,atd,22.37
2023-06-04T02:00:00,atd,22.60
2023-06-04T02:01:00,atd,21.55
2023-06-04T02:02:00,atd,21.14
2023-06-04T02:03:00,atd,25.16
2023-06-04T02:04:00,atd,32.43
2023-06-04T02:05:00,atd,18.91
2023-06-04T02:06:00,atd,20.94
2023-06-04T02:07:00,atd,20.36
2023-06-04T02:08:00,atd,18.87
2023-06-04T02:09:00,atd,23.19
2023-06-04T02:10:00,atd,21.71
2023-06-04T02:11:00,atd,22.76
2023-06-04T02:12:00,atd,22.47
2023-06-04T02:13:00,atd,20.83
2023-06-04T02:14:00,atd,24.81
2023-06-04T02:15:00,atd,23.81
2023-06-04T02:16:00,atd,20.01
2023-06-04T02:17:00,atd,20.86
2023-06-04T02:18:00,atd,23.00
2023-06-04T02:19:00,atd,20.58
2023-06-04T02:20:00,atd,20.42
2023-06-04T02:21:00,atd,19.80
2023-06-04T02:22:00,atd,22.00
2023-06-04T02:23:00,atd,24.77
2023-06-04T02:24:00,atd,17.95
2023-06-04T02:25:00,atd,20.35
2023-06-04T02:26:00,atd,20.56
2023-06-04T02:27:00,atd,23.81
2023-06-04T02:28:00,atd,21.22
2023-06-04T02:29:00,atd,20.99
2023-06-04T02:30:00,atd,23.66
2023-06-04T02:31:00,atd,19.56
2023-06-04T02:32:00,atd,18.42
2023-06-04T02:33:00,atd,15.59
2023-06-04T02:34:00,atd,15.69
2023-06-04T02:35:00,atd,15.76
2023-06-04T02:36:00,atd,17.79
2023-06-04T02:37:00,atd,15.68
2023-06-04T02:38:00,atd,18.46
2023-06-04T02:39:00,atd,16.57
2023-06-04T02:40:00,atd,20.24
2023-06-04T02:41:00,atd,22.29
2023-06-04T02:42:00,atd,18.39
2023-06-04T02:43:00,atd,21.13
2023-06-04T02:44:00,atd,24.30
2023-06-04T02:45:00,atd,22.04
2023-06-04T02:46:00,atd,19.92
2023-06-04T02:47:00,atd,19.43
2023-06-04T02:48:00,atd,19.26
2023-06-04T02:49:00,atd,20.87
2023-06-04T02:50:00,atd,19.29
2023-06-04T02:51:00,atd,17.96
2023-06-04T02:52:00,atd,17.11
2023-06-04T02:53:00,atd,16.13
2023-06-04T02:54:00,atd,17.26
2023-06-04T02:55:00,atd,17.60
2023-06-04T02:56:00,atd,20.39
2023-06-04T02:57:00,atd,17.36
2023-06-04T02:58:00,atd,21.86
2023-06-04T02:59:00,atd,23.21
2023-06-04T03:00:00,atd,21.87
2023-06-04T03:01:00,atd,17.95
2023-06-04T03:02:00,atd,32.94
2023-06-04T03:03:00,atd,18.59
2023-06-04T03:04:00,atd,19.32
2023-06-04T03:05:00,atd,19.94
2023-06-04T03:06:00,atd,19.60
2023-06-04T03:07:00,atd,23.76
2023-06-04T03:08:00,atd,19.07
2023-06-04T03:09:00,atd,21.63
2023-06-04T03:10:00,atd,20.34
2023-06-04T03:11:00,atd,19.47
2023-06-04T03:12:00,atd,17.83
2023-06-04T03:13:00,atd,15.61
2023-06-04T03:14:00,atd,15.11
2023-06-04T03:15:00,atd,20.88
2023-06-04T03:16:00,atd,20.37
2023-06-04T03:17:00,atd,22.95
2023-06-04T03:18:00,atd,23.24
2023-06-04T03:19:00,atd,20.94
2023-06-04T03:20:00,atd,24.15
2023-06-04T03:21:00,atd,22.39
2023-06-04T03:22:00,atd,24.55
2023-06-04T03:23:00,atd,25.57
2023-06-04T03:24:00,atd,24.72
2023-06-04T03:25:00,atd,23.40
2023-06-04T03:26:00,atd,21.53
2023-06-04T03:27:00,atd,20.95
2023-06-04T03:28:00,atd,22.78
2023-06-04T03:29:00,atd,23.20
2023-06-04T03:30:00,atd,21.65
2023-06-04T03:31:00,atd,22.77
2023-06-04T03:32:00,atd,17.24
2023-06-04T03:33:00,atd,19.25
2023-06-04T03:34:00,atd,19.11
2023-06-04T03:35:00,atd,22.12
2023-06-04T03:36:00,atd,19.83
2023-06-04T03:37:00,atd,20.03
2023-06-04T03:38:00,atd,22.64
2023-06-04T03:39:00,atd,23.32
2023-06-04T03:40:00,atd,23.96
2023-06-04T03:41:00,atd,19.96
2023-06-04T03:42:00,atd,23.01
2023-06-04T03:43:00,atd,21.29
2023-06-04T03:44:00,atd,37.34
2023-06-04T03:45:00,atd,21.31
2023-06-04T03:46:00,atd,20.75
2023-06-04T03:47:00,atd,19.94
2023-06-04T03:48:00,atd,16.85
2023-06-04T03:49:00,atd,19.86
2023-06-04T03:50:00,atd,23.75
2023-06-04T03:51:00,atd,21.35
2023-06-04T03:52:00,atd,18.18
2023-06-04T03:53:00,atd,18.69
2023-06-04T03:54:00,atd,16.95
2023-06-04T03:55:00,atd,19.51
2023-06-04T03:56:00,atd,19.25
2023-06-04T03:57:00,atd,21.05
2023-06-04T03:58:00,atd,19.90
2023-06-04T03:59:00,atd,22.28
2023-06-04T04:00:00,atd,21.65
2023-06-04T04:01:00,atd,17.50
2023-06-04T04:02:00,atd,28.22
2023-06-04T04:03:00,atd,19.43
2023-06-04T04:04:00,atd,17.96
2023-06-04T04:05:00,atd,20.35
2023-06-04T04:06:00,atd,18.74
2023-06-04T04:07:00,atd,16.74
2023-06-04T04:08:00,atd,19.27
2023-06-04T04:09:00,atd,19.17
2023-06-04T04:10:00,atd,18.86
2023-06-04T04:11:00,atd,19.98
2023-06-04T04:12:00,atd,19.67
2023-06-04T04:13:00,atd,21.70
2023-06-04T04:14:00,atd,23.87
2023-06-04T04:15:00,atd,20.18
2023-06-04T04:16:00,atd,20.57
2023-06-04T04:17:00,atd,38.43
2023-06-04T04:18:00,atd,34.91
2023-06-04T04:19:00,atd,31.42
2023-06-04T04:20:00,atd,32.76
2023-06-04T04:21:00,atd,43.25
2023-06-04T04:22:00,atd,29.48
2023-06-04T04:23:00,atd,18.30
2023-06-04T04:24:00,atd,16.45
2023-06-04T04:25:00,atd,16.14
2023-06-04T04:26:00,atd,21.46
2023-06-04T04:27:00,atd,23.19
2023-06-04T04:28:00,atd,23.02
2023-06-04T04:29:00,atd,20.19
2023-06-04T04:30:00,atd,22.64
2023-06-04T04:31:00,atd,22.32
2023-06-04T04:32:00,atd,24.70
2023-06-04T04:33:00,atd,20.60
2023-06-04T04:34:00,atd,20.67
2023-06-04T04:35:00,atd,20.30
2023-06-04T04:36:00,atd,17.75
2023-06-04T04:37:00,atd,15.87
2023-06-04T04:38:00,atd,20.17
2023-06-04T04:39:00,atd,19.20
2023-06-04T04:40:00,atd,18.13
2023-06-04T04:41:00,atd,27.57
2023-06-04T04:42:00,atd,17.44
2023-06-04T04:43:00,atd,21.92
2023-06-04T04:44:00,atd,21.04
2023-06-04T04:45:00,atd,21.31
2023-06-04T04:46:00,atd,21.84
2023-06-04T04:47:00,atd,22.66
2023-06-04T04:48:00,atd,22.41
2023-06-04T04:49:00,atd,24.33
2023-06-04T04:50:00,atd,23.41
2023-06-04T04:51:00,atd,22.32
2023-06-04T04:52:00,atd,25.18
2023-06-04T04:53:00,atd,25.84
2023-06-04T04:54:00,atd,23.17
2023-06-04T04:55:00,atd,24.64
2023-06-04T04:56:00,atd,26.20
2023-06-04T04:57:00,atd,23.04
2023-06-04T04:58:00,atd,22.41
2023-06-04T04:59:00,atd,23.03
2023-06-04T05:00:00,atd,19.77
2023-06-04T05:01:00,atd,20.06
2023-06-04T05:02:00,atd,19.92
2023-06-04T05:03:00,atd,23.53
2023-06-04T05:04:00,atd,18.29
2023-06-04T05:05:00,atd,28.35
2023-06-04T05:06:00,atd,26.50
2023-06-04T05:07:00,atd,31.22
2023-06-04T05:08:00,atd,29.14
2023-06-04T05:09:00,atd,21.23
2023-06-04T05:10:00,atd,19.98
2023-06-04T05:11:00,atd,20.26
2023-06-04T05:12:00,atd,18.74
2023-06-04T05:13:00,atd,21.70
2023-06-04T05:14:00,atd,20.02
2023-06-04T05:15:00,atd,18.75
2023-06-04T05:16:00,atd,18.13
2023-06-04T05:17:00,atd,19.00
2023-06-04T05:18:00,atd,22.19
2023-06-04T05:19:00,atd,18.30
2023-06-04T05:20:00,atd,17.09
2023-06-04T05:21:00,atd,19.64
2023-06-04T05:22:00,atd,17.02
2023-06-04T05:23:00,atd,16.77
2023-06-04T05:24:00,atd,16.89
2023-06-04T05:25:00,atd,19.53
2023-06-04T05:26:00,atd,19.78
2023-06-04T05:27:00,atd,18.89
2023-06-04T05:28:00,atd,19.56
2023-06-04T05:29:00,atd,20.41
2023-06-04T05:30:00,atd,15.08
2023-06-04T05:31:00,atd,21.26
2023-06-04T05:32:00,atd,25.79
2023-06-04T05:33:00,atd,29.29
2023-06-04T05:34:00,atd,24.61
2023-06-04T05:35:00,atd,26.10
2023-06-04T05:36:00,atd,26.55
2023-06-04T05:37:00,atd,25.52
2023-06-04T05:38:00,atd,23.85
2023-06-04T05:39:00,atd,24.52
2023-06-04T05:40:00,atd,27.93
2023-06-04T05:41:00,atd,37.07
2023-06-04T05:42:00,atd,27.23
2023-06-04T05:43:00,atd,30.60
2023-06-04T05:44:00,atd,29.67
2023-06-04T05:45:00,atd,28.61
2023-06-04T05:46:00,atd,29.91
2023-06-04T05:47:00,atd,28.05
2023-06-04T05:48:00,atd,29.02
2023-06-04T05:49:00,atd,28.22
2023-06-04T05:50:00,atd,28.73
2023-06-04T05:51:00,atd,26.19
2023-06-04T05:52:00,atd,28.07
2023-06-04T05:53:00,atd,28.53
2023-06-04T05:54:00,atd,26.75
2023-06-04T05:55:00,atd,27.38
2023-06-04T05:56:00,atd,26.80
2023-06-04T05:57:00,atd,25.70
2023-06-04T05:58:00,atd,32.47
2023-06-04T05:59:00,atd,30.99
2023-06-04T06:00:00,atd,32.63
2023-06-04T06:01:00,atd,32.47
2023-06-04T06:02:00,atd,33.08
2023-06-04T06:03:00,atd,32.84
2023-06-04T06:04:00,atd,32.74
2023-06-04T06:05:00,atd,32.06
2023-06-04T06:06:00,atd,32.57
2023-06-04T06:07:00,atd,31.15
2023-06-04T06:08:00,atd,24.79
2023-06-04T06:09:00,atd,27.45
2023-06-04T06:10:00,atd,26.55
2023-06-04T06:11:00,atd,29.16
2023-06-04T06:12:00,atd,30.88
2023-06-04T06:13:00,atd,30.99
2023-06-04T06:14:00,atd,30.73
2023-06-04T06:15:00,atd,42.01
2023-06-04T06:16:00,atd,31.14
2023-06-04T06:17:00,atd,26.80
2023-06-04T06:18:00,atd,29.57
2023-06-04T06:19:00,atd,30.11
2023-06-04T06:20:00,atd,28.45
2023-06-04T06:21:00,atd,30.65
2023-06-04T06:22:00,atd,33.10
2023-06-04T06:23:00,atd,31.70
2023-06-04T06:24:00,atd,28.87
2023-06-04T06:25:00,atd,25.81
2023-06-04T06:26:00,atd,26.73
2023-06-04T06:27:00,atd,26.17
2023-06-04T06:28:00,atd,25.80
2023-06-04T06:29:00,atd,27.21
2023-06-04T06:30:00,atd,26.10
2023-06-04T06:31:00,atd,27.73
2023-06-04T06:32:00,atd,26.91
2023-06-04T06:33:00,atd,26.78
2023-06-04T06:34:00,atd,27.07
2023-06-04T06:35:00,atd,25.13
2023-06-04T06:36:00,atd,24.71
2023-06-04T06:37:00,atd,25.75
2023-06-04T06:38:00,atd,26.40
2023-06-04T06:39:00,atd,27.54
2023-06-04T06:40:00,atd,29.74
2023-06-04T06:41:00,atd,28.99
2023-06-04T06:42:00,atd,28.70
2023-06-04T06:43:00,atd,25.39
2023-06-04T06:44:00,atd,28.44
2023-06-04T06:45:00,atd,30.41
2023-06-04T06:46:00,atd,27.18
2023-06-04T06:47:00,atd,26.06
2023-06-04T06:48:00,atd,38.21
2023-06-04T06:49:00,atd,23.86
2023-06-04T06:50:00,atd,23.49
2023-06-04T06:51:00,atd,24.37
2023-06-04T06:52:00,atd,24.35
2023-06-04T06:53:00,atd,23.86
2023-06-04T06:54:00,atd,25.49
2023-06-04T06:55:00,atd,26.21
2023-06-04T06:56:00,atd,27.30
2023-06-04T06:57:00,atd,27.83
2023-06-04T06:58:00,atd,27.88
2023-06-04T06:59:00,atd,31.24
2023-06-04T07:00:00,atd,28.66
2023-06-04T07:01:00,atd,27.10
2023-06-04T07:02:00,atd,28.54
2023-06-04T07:03:00,atd,27.99
2023-06-04T07:04:00,atd,22.22
2023-06-04T07:05:00,atd,22.05
2023-06-04T07:06:00,atd,23.95
2023-06-04T07:07:00,atd,21.45
2023-06-04T07:08:00,atd,21.76
2023-06-04T07:09:00,atd,29.57
2023-06-04T07:10:00,atd,47.27
2023-06-04T07:11:00,atd,30.02
2023-06-04T07:12:00,atd,31.75
2023-06-04T07:13:00,atd,29.47
2023-06-04T07:14:00,atd,37.97
2023-06-04T07:15:00,atd,27.04
2023-06-04T07:16:00,atd,27.44
2023-06-04T07:17:00,atd,32.56
2023-06-04T07:18:00,atd,29.80
2023-06-04T07:19:00,atd,40.49
2023-06-04T07:20:00,atd,38.04
2023-06-04T07:21:00,atd,39.72
2023-06-04T07:22:00,atd,36.84
2023-06-04T07:23:00,atd,24.11
2023-06-04T07:24:00,atd,25.09
2023-06-04T07:25:00,atd,24.06
2023-06-04T07:26:00,atd,25.33
2023-06-04T07:27:00,atd,25.49
2023-06-04T07:28:00,atd,26.57
2023-06-04T07:29:00,atd,24.59
2023-06-04T07:30:00,atd,28.01
2023-06-04T07:31:00,atd,29.59
2023-06-04T07:32:00,atd,29.21
2023-06-04T07:33:00,atd,26.90
2023-06-04T07:34:00,atd,28.35
2023-06-04T07:35:00,atd,26.40
2023-06-04T07:36:00,atd,25.64
2023-06-04T07:37:00,atd,24.98
2023-06-04T07:38:00,atd,30.74
2023-06-04T07:39:00,atd,42.81
2023-06-04T07:40:00,atd,32.01
2023-06-04T07:41:00,atd,30.69
2023-06-04T07:42:00,atd,28.35
2023-06-04T07:43:00,atd,27.32
2023-06-04T07:44:00,atd,27.34
2023-06-04T07:45:00,atd,26.69
2023-06-04T07:46:00,atd,28.44
2023-06-04T07:47:00,atd,27.09
2023-06-04T07:48:00,atd,26.08
2023-06-04T07:49:00,atd,27.19
2023-06-04T07:50:00,atd,24.65
2023-06-04T07:51:00,atd,24.93
2023-06-04T07:52:00,atd,23.44
2023-06-04T07:53:00,atd,25.20
2023-06-04T07:54:00,atd,26.52
2023-06-04T07:55:00,atd,22.84
2023-06-04T07:56:00,atd,36.12
2023-06-04T07:57:00,atd,31.30
2023-06-04T07:58:00,atd,29.12
2023-06-04T07:59:00,atd,29.00
2023-06-04T08:00:00,atd,29.03
2023-06-04T08:01:00,atd,31.81
2023-06-04T08:02:00,atd,28.08
2023-06-04T08:03:00,atd,27.89
2023-06-04T08:04:00,atd,28.16
2023-06-04T08:05:00,atd,27.45
2023-06-04T08:06:00,atd,28.11
2023-06-04T08:07:00,atd,31.73
2023-06-04T08:08:00,atd,28.32
2023-06-04T08:09:00,atd,27.23
2023-06-04T08:10:00,atd,26.37
2023-06-04T08:11:00,atd,28.24
2023-06-04T08:12:00,atd,26.11
2023-06-04T08:13:00,atd,28.89
2023-06-04T08:14:00,atd,40.63
2023-06-04T08:15:00,atd,31.88
2023-06-04T08:16:00,atd,30.51
2023-06-04T08:17:00,atd,28.88
2023-06-04T08:18:00,atd,25.22
2023-06-04T08:19:00,atd,27.44
2023-06-04T08:20:00,atd,32.99
2023-06-04T08:21:00,atd,32.85
2023-06-04T08:22:00,atd,33.38
2023-06-04T08:23:00,atd,32.80
2023-06-04T08:24:00,atd,23.62
2023-06-04T08:25:00,atd,23.29
2023-06-04T08:26:00,atd,25.21
2023-06-04T08:27:00,atd,22.77
2023-06-04T08:28:00,atd,25.75
2023-06-04T08:29:00,atd,24.66
2023-06-04T08:30:00,atd,27.22
2023-06-04T08:31:00,atd,28.18
2023-06-04T08:32:00,atd,30.00
2023-06-04T08:33:00,atd,28.93
2023-06-04T08:34:00,atd,33.60
2023-06-04T08:35:00,atd,29.53
2023-06-04T08:36:00,atd,26.86
2023-06-04T08:37:00,atd,24.82
2023-06-04T08:38:00,atd,23.21
2023-06-04T08:39:00,atd,26.08
2023-06-04T08:40:00,atd,31.85
2023-06-04T08:41:00,atd,31.46
2023-06-04T08:42:00,atd,30.55
2023-06-04T08:43:00,atd,30.24
2023-06-04T08:44:00,atd,30.30
2023-06-04T08:45:00,atd,32.35
2023-06-04T08:46:00,atd,29.10
2023-06-04T08:47:00,atd,30.44
2023-06-04T08:48:00,atd,30.03
2023-06-04T08:49:00,atd,33.37
2023-06-04T08:50:00,atd,28.97
2023-06-04T08:51:00,atd,25.95
2023-06-04T08:52:00,atd,29.02
2023-06-04T08:53:00,atd,25.71
2023-06-04T08:54:00,atd,25.09
2023-06-04T08:55:00,atd,25.31
2023-06-04T08:56:00,atd,23.33
2023-06-04T08:57:00,atd,23.82
2023-06-04T08:58:00,atd,24.16
2023-06-04T08:59:00,atd,26.41
2023-06-04T09:00:00,atd,24.38
2023-06-04T09:01:00,atd,27.46
2023-06-04T09:02:00,atd,28.05
2023-06-04T09:03:00,atd,25.40
2023-06-04T09:04:00,atd,33.10
2023-06-04T09:05:00,atd,29.64
2023-06-04T09:06:00,atd,30.31
2023-06-04T09:07:00,atd,26.65
2023-06-04T09:08:00,atd,27.74
2023-06-04T09:09:00,atd,27.24
2023-06-04T09:10:00,atd,27.41
2023-06-04T09:11:00,atd,23.99
2023-06-04T09:12:00,atd,27.29
2023-06-04T09:13:00,atd,27.11
2023-06-04T09:14:00,atd,24.57
2023-06-04T09:15:00,atd,26.56
2023-06-04T09:16:00,atd,27.47
2023-06-04T09:17:00,atd,29.17
2023-06-04T09:18:00,atd,28.10
2023-06-04T09:19:00,atd,29.02
2023-06-04T09:20:00,atd,30.70
2023-06-04T09:21:00,atd,41.54
2023-06-04T09:22:00,atd,32.87
2023-06-04T09:23:00,atd,30.54
2023-06-04T09:24:00,atd,28.51
2023-06-04T09:25:00,atd,29.14
2023-06-04T09:26:00,atd,29.35
2023-06-04T09:27:00,atd,29.38
2023-06-04T09:28:00,atd,31.40
2023-06-04T09:29:00,atd,27.11
2023-06-04T09:30:00,atd,29.77
2023-06-04T09:31:00,atd,25.37
2023-06-04T09:32:00,atd,24.96
2023-06-04T09:33:00,atd,23.29
2023-06-04T09:34:00,atd,23.97
2023-06-04T09:35:00,atd,21.99
2023-06-04T09:36:00,atd,25.32
2023-06-04T09:37:00,atd,24.05
2023-06-04T09:38:00,atd,26.24
2023-06-04T09:39:00,atd,25.06
2023-06-04T09:40:00,atd,26.71
2023-06-04T09:41:00,atd,27.32
2023-06-04T09:42:00,atd,26.56
2023-06-04T09:43:00,atd,24.91
2023-06-04T09:44:00,atd,25.73
2023-06-04T09:45:00,atd,24.73
2023-06-04T09:46:00,atd,24.81
2023-06-04T09:47:00,atd,31.63
2023-06-04T09:48:00,atd,27.20
2023-06-04T09:49:00,atd,25.40
2023-06-04T09:50:00,atd,25.17
2023-06-04T09:51:00,atd,29.96
2023-06-04T09:52:00,atd,25.72
2023-06-04T09:53:00,atd,38.70
2023-06-04T09:54:00,atd,28.38
2023-06-04T09:55:00,atd,22.81
2023-06-04T09:56:00,atd,25.62
2023-06-04T09:57:00,atd,25.17
2023-06-04T09:58:00,atd,28.99
2023-06-04T09:59:00,atd,31.25
2023-06-04T10:00:00,atd,30.23
2023-06-04T10:01:00,atd,31.92
2023-06-04T10:02:00,atd,29.53
2023-06-04T10:03:00,atd,31.24
2023-06-04T10:04:00,atd,36.71
2023-06-04T10:05:00,atd,25.45
2023-06-04T10:06:00,atd,26.23
2023-06-04T10:07:00,atd,26.54
2023-06-04T10:08:00,atd,25.35
2023-06-04T10:09:00,atd,22.89
2023-06-04T10:10:00,atd,23.25
2023-06-04T10:11:00,atd,21.64
2023-06-04T10:12:00,atd,22.46
2023-06-04T10:13:00,atd,22.93
2023-06-04T10:14:00,atd,22.95
2023-06-04T10:15:00,atd,23.73
2023-06-04T10:16:00,atd,24.01
2023-06-04T10:17:00,atd,30.07
2023-06-04T10:18:00,atd,28.57
2023-06-04T10:19:00,atd,28.34
2023-06-04T10:20:00,atd,27.89
2023-06-04T10:21:00,atd,29.05
2023-06-04T10:22:00,atd,28.42
2023-06-04T10:23:00,atd,26.04
2023-06-04T10:24:00,atd,26.90
2023-06-04T10:25:00,atd,28.26
2023-06-04T10:26:00,atd,25.79
2023-06-04T10:27:00,atd,24.65
2023-06-04T10:28:00,atd,23.12
2023-06-04T10:29:00,atd,21.97
2023-06-04T10:30:00,atd,23.47
2023-06-04T10:31:00,atd,24.13
2023-06-04T10:32:00,atd,23.10
2023-06-04T10:33:00,atd,25.63
2023-06-04T10:34:00,atd,23.97
2023-06-04T10:35:00,atd,30.85
2023-06-04T10:36:00,atd,27.90
2023-06-04T10:37:00,atd,30.06
2023-06-04T10:38:00,atd,29.44
2023-06-04T10:39:00,atd,27.68
2023-06-04T10:40:00,atd,40.89
2023-06-04T10:41:00,atd,37.32
2023-06-04T10:42:00,atd,36.55
2023-06-04T10:43:00,atd,34.65
2023-06-04T10:44:00,atd,27.35
2023-06-04T10:45:00,atd,28.84
2023-06-04T10:46:00,atd,24.59
2023-06-04T10:47:00,atd,25.85
2023-06-04T10:48:00,atd,25.44
2023-06-04T10:49:00,atd,26.20
2023-06-04T10:50:00,atd,25.48
2023-06-04T10:51:00,atd,23.61
2023-06-04T10:52:00,atd,24.34
2023-06-04T10:53:00,atd,26.98
2023-06-04T10:54:00,atd,31.04
2023-06-04T10:55:00,atd,31.49
2023-06-04T10:56:00,atd,30.63
2023-06-04T10:57:00,atd,32.64
2023-06-04T10:58:00,atd,29.84
2023-06-04T10:59:00,atd,27.52
2023-06-04T11:00:00,atd,30.11
2023-06-04T11:01:00,atd,38.55
2023-06-04T11:02:00,atd,25.85
2023-06-04T11:03:00,atd,28.81
2023-06-04T11:04:00,atd,34.64
2023-06-04T11:05:00,atd,31.38
2023-06-04T11:06:00,atd,31.91
2023-06-04T11:07:00,atd,31.03
2023-06-04T11:08:00,atd,34.16
2023-06-04T11:09:00,atd,31.00
2023-06-04T11:10:00,atd,28.46
2023-06-04T11:11:00,atd,29.77
2023-06-04T11:12:00,atd,32.12
2023-06-04T11:13:00,atd,24.33
2023-06-04T11:14:00,atd,25.71
2023-06-04T11:15:00,atd,27.58
2023-06-04T11:16:00,atd,28.25
2023-06-04T11:17:00,atd,25.27
2023-06-04T11:18:00,atd,35.75
2023-06-04T11:19:00,atd,24.81
2023-06-04T11:20:00,atd,25.78
2023-06-04T11:21:00,atd,26.61
2023-06-04T11:22:00,atd,26.16
2023-06-04T11:23:00,atd,28.91
2023-06-04T11:24:00,atd,26.52
2023-06-04T11:25:00,atd,26.82
2023-06-04T11:26:00,atd,25.49
2023-06-04T11:27:00,atd,24.74
2023-06-04T11:28:00,atd,26.11
2023-06-04T11:29:00,atd,28.38
2023-06-04T11:30:00,atd,27.87
2023-06-04T11:31:00,atd,30.31
2023-06-04T11:32:00,atd,26.59
2023-06-04T11:33:00,atd,29.51
2023-06-04T11:34:00,atd,39.55
2023-06-04T11:35:00,atd,28.60
2023-06-04T11:36:00,atd,25.37
2023-06-04T11:37:00,atd,24.63
2023-06-04T11:38:00,atd,26.52
2023-06-04T11:39:00,atd,24.02
2023-06-04T11:40:00,atd,26.87
2023-06-04T11:41:00,atd,30.91
2023-06-04T11:42:00,atd,28.87
2023-06-04T11:43:00,atd,25.56
2023-06-04T11:44:00,atd,26.35
2023-06-04T11:45:00,atd,27.18
2023-06-04T11:46:00,atd,27.60
2023-06-04T11:47:00,atd,28.74
2023-06-04T11:48:00,atd,24.67
2023-06-04T11:49:00,atd,27.00
2023-06-04T11:50:00,atd,41.41
2023-06-04T11:51:00,atd,37.36
2023-06-04T11:52:00,atd,34.14
2023-06-04T11:53:00,atd,35.12
2023-06-04T11:54:00,atd,27.48
2023-06-04T11:55:00,atd,28.14
2023-06-04T11:56:00,atd,24.60
2023-06-04T11:57:00,atd,26.47
2023-06-04T11:58:00,atd,23.50
2023-06-04T11:59:00,atd,23.74
2023-06-04T12:00:00,atd,23.48
2023-06-04T12:01:00,atd,23.83
2023-06-04T12:02:00,atd,22.69
2023-06-04T12:03:00,atd,25.05
2023-06-04T12:04:00,atd,26.49
2023-06-04T12:05:00,atd,25.70
2023-06-04T12:06:00,atd,43.45
2023-06-04T12:07:00,atd,30.74
2023-06-04T12:08:00,atd,28.23
2023-06-04T12:09:00,atd,28.06
2023-06-04T12:10:00,atd,26.44
2023-06-04T12:11:00,atd,25.38
2023-06-04T12:12:00,atd,23.61
2023-06-04T12:13:00,atd,22.62
2023-06-04T12:14:00,atd,24.08
2023-06-04T12:15:00,atd,25.47
2023-06-04T12:16:00,atd,24.75
2023-06-04T12:17:00,atd,26.10
2023-06-04T12:18:00,atd,26.48
2023-06-04T12:19:00,atd,27.60
2023-06-04T12:20:00,atd,25.48
2023-06-04T12:21:00,atd,24.62
2023-06-04T12:22:00,atd,24.54
2023-06-04T12:23:00,atd,24.37
2023-06-04T12:24:00,atd,27.63
2023-06-04T12:25:00,atd,24.55
2023-06-04T12:26:00,atd,27.51
2023-06-04T12:27:00,atd,29.67
2023-06-04T12:28:00,atd,26.78
2023-06-04T12:29:00,atd,25.18
2023-06-04T12:30:00,atd,23.73
2023-06-04T12:31:00,atd,21.21
2023-06-04T12:32:00,atd,23.05
2023-06-04T12:33:00,atd,22.26
2023-06-04T12:34:00,atd,26.29
2023-06-04T12:35:00,atd,24.28
2023-06-04T12:36:00,atd,28.04
2023-06-04T12:37:00,atd,30.86
2023-06-04T12:38:00,atd,29.27
2023-06-04T12:39:00,atd,41.63
2023-06-04T12:40:00,atd,28.45
2023-06-04T12:41:00,atd,29.19
2023-06-04T12:42:00,atd,28.83
2023-06-04T12:43:00,atd,27.98
2023-06-04T12:44:00,atd,29.30
2023-06-04T12:45:00,atd,27.67
2023-06-04T12:46:00,atd,36.06
2023-06-04T12:47:00,atd,33.19
2023-06-04T12:48:00,atd,31.82
2023-06-04T12:49:00,atd,65.41
2023-06-04T12:50:00,atd,77.12
2023-06-04T12:51:00,atd,82.78
2023-06-04T12:52:00,atd,78.86
2023-06-04T12:53:00,atd,73.97
2023-06-04T12:54:00,atd,81.28
2023-06-04T12:55:00,atd,77.54
2023-06-04T12:56:00,atd,73.25
2023-06-04T12:57:00,atd,72.82
2023-06-04T12:58:00,atd,31.13
2023-06-04T12:59:00,atd,31.28
2023-06-04T13:00:00,atd,30.54
2023-06-04T13:01:00,atd,29.31
2023-06-04T13:02:00,atd,30.22
2023-06-04T13:03:00,atd,29.40
2023-06-04T13:04:00,atd,33.32
2023-06-04T13:05:00,atd,34.31
2023-06-04T13:06:00,atd,30.42
2023-06-04T13:07:00,atd,32.23
2023-06-04T13:08:00,atd,62.17
2023-06-04T13:09:00,atd,63.43
2023-06-04T13:10:00,atd,66.85
2023-06-04T13:11:00,atd,71.80
2023-06-04T13:12:00,atd,69.41
2023-06-04T13:13:00,atd,65.48
2023-06-04T13:14:00,atd,65.30
2023-06-04T13:15:00,atd,64.12
2023-06-04T13:16:00,atd,29.50
2023-06-04T13:17:00,atd,27.07
2023-06-04T13:18:00,atd,33.57